C/2016 K1 ( LINEAR )

Japanese version
Home page
Updated on December 31, 2016

---------------------------------------------------------------------

* Profile

Discovery Date May 31, 2016
Magnitude 19.3 mag
Discoverer LINEAR survey (Space Surveillance Telescope, Atom Peak, White Sands Missile Range, NM, USA)

* Pictures

* Orbital Elements

Epoch 2016 July 31.0 TT = JDT 2457600.5
T 2016 July 13.37869 TT                                 MPCW
q   2.2915065            (2000.0)            P               Q
z  -0.0000894      Peri.   18.25334     +0.78194696     -0.26665333
 +/-0.0000068      Node   325.70231     -0.61906075     -0.22640903
e   1.0002049      Incl.   90.84548     +0.07295712     +0.93682173
From 289 observations 2016 May 31-Oct. 29, mean residual 0".6.

* Finding Charts

* Magnitudes Graph

        m1 = 11.5 + 5 log d + 13.0 log r(t + 50)

---------------------------------------------------------------------

The orbital elements are published on M.P.E.C. 2016-V116.
The charts are made with StellaNavigator Ver.10 (AstroArts).
The magnitudes graphs are made with Comet for Windows.

---------------------------------------------------------------------

Copyright(C) Seiichi Yoshida (comet@aerith.net). All rights reserved.